PEGASUS DEB

Satellite information

Favourite Embed

Satellite Type and Status

DEBRISIN ORBIT

Key statistics

Satellite PEGASUS DEB at a glance.

Uptime

11427

Days in orbit

Revolutions

≈ 14.3

Per day

Orbit

LEO

Low Earth Orbit

Inclination

81.9

Latest

Satellite identification and parameters

Extended collection of information and parameters for PEGASUS DEB.

Object identification

Identified? True

Debris? True

Object name: PEGASUS DEB

International designator: 1994-029AGJ

Object number (NORAD): 40242

Object ID (CCSDS): 40242

Country: UNITED STATES OF AMERICA (US)

Current information (Y/N): Y

RCS size: SMALL

Orbital parameters

Period: 100.775 minutes

Inclination: 81.8777 deg

SMA: 7173.469 km

Apoapsis: 1036.938 km

Periapsis: 553.73 km

RAAN: 219.901 deg

Eccentricy: 0.03368019

Argument of periapsis: 18.5215 deg

Mean anomaly: 342.7883 deg

Mean motion: 14.28923334 rev/day

Mean motion (dot): 0.00019248 rev/day2

B* drag term: 0.0041075961 1/REarth

Two-line elements (TLE)

Creation date: Aug. 29, 2025, 2:15 a.m.

Reference frame: TEME

Reference center: EARTH

Epoch: Aug. 28, 2025, 4:41 p.m. UTC

TLE line 0: 0 PEGASUS DEB

TLE line 1: 1 40242U 94029AGJ 25240.69563381 .00019248 00000-0 41076-2 0 9994

TLE line 2: 2 40242 81.8777 219.9010 0336802 18.5215 342.7883 14.28923334560711

Live tracking on map

Real-time ground track for satellite PEGASUS DEB.

In-orbit conjunctions

A list of the most updated potential collisions computed for object PEGASUS DEB.

Target Orbit TCA Probability of collision Miss distance Type
RUBIN 4/SL-8 SSO 2025-03-15 19:35:14 0.0001927379 942.0 (m) PAYLOAD
FUSE 1 LEO 2025-02-02 20:48:40 0.0002514717 861.0 (m) PAYLOAD
CZ-6A DEB LEO 2024-11-09 13:31:36 0.0001360605 406.0 (m) DEBRIS
FENGYUN 1C DEB SSO 2024-09-03 01:58:04 0.0001147464 55.0 (m) DEBRIS

Associated space launch

PEGASUS DEB was lifted into orbit during the mission ‘Pegasus HAPS | Space Test Experiments Platform 2 (STEP-2)’, on board a Pegasus HAPS space rocket.

The launch took place on May 19, 1994, 5:03 p.m. from Edwards Air Force Base.

For more information about the launch, click the button.

Launch to space Pegasus HAPS | Space Test Experiments Platform 2 (STEP-2)
Pegasus HAPS | Space Test Experiments Platform 2 (STEP-2)

Agency: N/A

Status: Launch Successful

Launch date: May 19, 1994, 5:03 p.m. UTC

Rocket: Pegasus HAPS

Launch pad: Edwards Air Force Base

Location: Air launch to orbit

...

Latest news about this satellite

There are no fresh news available about this satellite. Check back as we update our databases every day.


Newsletter sign-up

Weekly statistics, charts and insights to help you stay on top of the space industry.